Leuchars, United Kingdom

10:10 AM BST on May 27, 2017 (GMT +0100)
Leuchars Air Base

Weather History for EGQL - July, 2013

Change the Weather History Date:

Wednesday, July 17, 2013

  Actual Average Record
Temperature  
Mean Temperature 64 °F -  
Max Temperature 75 °F 63 °F 82 °F (2006)
Min Temperature 54 °F 50 °F 39 °F (2000)
Growing Degree Days 14 (Base 50)    
Moisture  
Dew Point 55 °F    
Average Humidity 67    
Maximum Humidity 94    
Minimum Humidity 40    
Precipitation  
Precipitation 0.00 in - - ()
Sea Level Pressure  
Sea Level Pressure 30.25 in    
Wind  
Wind Speed 9 mph ()    
Max Wind Speed 34 mph    
Max Gust Speed -    
Visibility 12.1 miles    
Events      
Averages and records for this station are not official NWS values.
T = Trace of Precipitation, MM = Missing Value Source: Averaged Metar Reports

Daily Weather History Graph

Daily Weather History Graph

Search for Another Location

Airport or City:

Trip Planner

Search our weather history database for the weather conditions in past years. The results will help you decide how hot, cold, wet, or windy it might be!

Date:

Astronomy

Jul. 17, 2013 Rise Set
Actual Time 4:47 AM BST 9:47 PM BST
Civil Twilight 3:50 AM BST 10:43 PM BST
Nautical Twilight 1:56 AM BST 12:32 AM BST
Astronomical Twilight Sun does not set Sun does not set
Moon 4:00 PM BST (7/17) 12:13 AM BST (7/17)
Length of Visible Light 18h 52m
Length of Day
17h 00m
Waxing Gibbous, 64% of the Moon is Illuminated
Jul 17
Waxing Gibbous
Jul 22
Full
Jul 29
Last Quarter
Aug 6
New
Aug 14
First Quarter

Hourly Weather History & Observations

Time (BST) Temp. Dew Point Humidity Pressure Visibility Wind Dir Wind Speed Gust Speed Precip Events Conditions
12:50 AM 55 °F 52 °F 85% 30.23 in 19 mi WSW 6.9 mph - -   Scattered Clouds
12:50 AM 55.4 °F 51.8 °F 88% 30.21 in - WSW 6.9 mph - N/A   Clear
1:50 AM 55 °F 52 °F 86% 30.24 in 16 mi WSW 5.8 mph - -   Scattered Clouds
1:50 AM 55.4 °F 51.8 °F 88% 30.21 in - WSW 5.8 mph - N/A   Clear
2:50 AM 55 °F 53 °F 91% 30.24 in 25 mi North 1.2 mph - -   Clear
2:50 AM 55.4 °F 53.6 °F 94% 30.21 in - North 1.2 mph - N/A   Clear
3:50 AM 57 °F 54 °F 85% 30.24 in 19 mi West 8.1 mph - -   Scattered Clouds
3:50 AM 57.2 °F 53.6 °F 88% 30.21 in - West 8.1 mph - N/A   Clear
4:50 AM 54 °F 52 °F 91% 30.24 in 16 mi West 5.8 mph - -   Scattered Clouds
4:50 AM 55.4 °F 51.8 °F 88% 30.21 in - West 5.8 mph - N/A   Clear
5:50 AM 57 °F 54 °F 85% 30.24 in 12 mi West 9.2 mph - -   Scattered Clouds
5:50 AM 57.2 °F 53.6 °F 88% 30.21 in - West 9.2 mph - N/A   Clear
6:50 AM 59 °F 55 °F 82% 30.24 in 16 mi West 8.1 mph - -   Scattered Clouds
6:50 AM 59.0 °F 55.4 °F 88% 30.24 in - West 8.1 mph - N/A   Clear
7:50 AM 63 °F 56 °F 73% 30.25 in 16 mi West 10.4 mph - -   Scattered Clouds
7:50 AM 62.6 °F 57.2 °F 82% 30.24 in - West 10.4 mph - N/A   Clear
8:50 AM 68 °F 56 °F 58% 30.25 in 22 mi WSW 12.7 mph - -   Scattered Clouds
8:50 AM 68.0 °F 57.2 °F 68% 30.24 in 6.2 mi WSW 12.7 mph - N/A   Scattered Clouds
9:50 AM 71 °F 54 °F 46% 30.25 in 22 mi West 16.1 mph - -   Scattered Clouds
9:50 AM 71.6 °F 55.4 °F 57% 30.24 in 6.2 mi West 16.1 mph - N/A   Mostly Cloudy
10:50 AM 71.6 °F 53.6 °F 53% 30.24 in 6.2 mi WNW 16.1 mph - N/A   Mostly Cloudy
11:50 AM 72 °F 54 °F 42% 30.25 in 22 mi WNW 20.7 mph - -   Scattered Clouds
11:50 AM 71.6 °F 53.6 °F 53% 30.24 in 6.2 mi WNW 20.7 mph - N/A   Mostly Cloudy
12:50 PM 73 °F 54 °F 40% 30.25 in 22 mi WNW 17.3 mph - -   Scattered Clouds
12:50 PM 73.4 °F 53.6 °F 50% 30.24 in 6.2 mi WNW 17.3 mph - N/A   Mostly Cloudy
1:50 PM 73 °F 54 °F 41% 30.26 in 22 mi West 33.6 mph - -   Overcast
1:50 PM 73.4 °F 53.6 °F 50% 30.24 in - West 17.3 mph - N/A   Clear
2:50 PM 74 °F 56 °F 42% 30.26 in 22 mi West 15.0 mph - -   Overcast
2:50 PM 75.2 °F 55.4 °F 50% 30.24 in - West 15.0 mph - N/A   Clear
3:50 PM 75.2 °F 55.4 °F 50% 30.24 in - West 15.0 mph - N/A   Clear
4:50 PM 74 °F 56 °F 44% 30.26 in 22 mi West 16.1 mph - -   Overcast
4:50 PM 73.4 °F 57.2 °F 57% 30.24 in - West 16.1 mph - N/A   Clear
5:50 PM 73.4 °F 57.2 °F 57% 30.24 in - West 15.0 mph - N/A   Clear
6:50 PM 72 °F 57 °F 49% 30.27 in 22 mi WNW 12.7 mph - -   Scattered Clouds
6:50 PM 73.4 °F 57.2 °F 57% 30.24 in - WNW 12.7 mph - N/A   Clear
7:50 PM 71.6 °F 57.2 °F 60% 30.27 in - West 10.4 mph - N/A   Clear
8:50 PM 69.8 °F 57.2 °F 64% 30.27 in - WNW 10.4 mph - N/A   Clear
9:50 PM 67 °F 57 °F 63% 30.30 in 22 mi West 9.2 mph - -   Partly Cloudy
9:50 PM 66.2 °F 57.2 °F 73% 30.30 in - West 9.2 mph - N/A   Clear
10:50 PM 66.2 °F 57.2 °F 73% 30.30 in - West 11.5 mph - N/A   Clear
11:50 PM 62.6 °F 57.2 °F 82% 30.30 in - West 9.2 mph - N/A   Clear